[[[{"header":{"parameterUnit":"kt","parameterCategory":2,"dx":1,"dy":1,"la1":30.253999710083008,"la2":30.299108505249023,"lo1":-89.0895004272461,"lo2":-89.04439544677734,"nx":28,"ny":28,"refTime":"2022-10-17T21:00:00:Z","depth":0,"parameterNumber":1,"parameterNumberName":"U-component_of_WINDS"},"data":[3.0971,3.0996,3.1003,3.1035,3.1047,3.1071,3.1082,3.1097,3.111,3.114,3.1158,3.1169,3.1185,3.121,3.123,3.1234,3.1243,3.1247,3.1251,3.1224,3.122,3.1217,3.1211,3.1249,3.1249,3.1279,3.1279,3.1279,3.0955,3.0967,3.0985,3.1008,3.1025,3.1025,3.1044,3.1057,3.1078,3.1095,3.1113,3.114,3.1161,3.1176,3.1199,3.1212,3.1213,3.1217,3.1216,3.1219,3.119,3.1183,3.1216,3.1216,3.1216,3.1216,3.1216,3.1216,3.0927,3.0941,3.0958,3.0979,3.0992,3.1007,3.1022,3.1033,3.1052,3.1075,3.1079,3.1103,3.1121,3.115,3.1161,3.1181,3.1177,3.1183,3.1185,3.1186,3.1188,3.1146,3.1185,3.1185,3.1185,3.1185,3.1184,0,3.0908,3.0913,3.093,3.095,3.0965,3.0981,3.0997,3.1006,3.1017,3.1032,3.1054,3.1067,3.1095,3.1116,3.1138,3.1148,3.1148,3.1149,3.1154,3.1151,3.1148,3.1151,3.1103,3.1147,3.1147,3.1147,3.1146,3.1146,3.0881,3.0896,3.0916,3.0928,3.0937,3.0955,3.0967,3.0976,3.0989,3.1009,3.1021,3.1042,3.1059,3.1093,3.1105,3.1125,3.1125,3.1141,3.1128,3.1127,3.1126,3.1125,3.1127,3.1143,3.1144,3.1144,3.1144,0,3.0865,3.0874,3.0899,3.0917,3.0922,3.0938,3.0954,3.0968,3.0976,3.0997,3.1003,3.1015,3.1036,3.1045,3.107,3.1074,3.1102,3.1102,3.1097,3.1097,3.1113,3.1111,3.1161,3.1168,3.1129,3.1129,3.113,0,3.0845,3.0864,3.0877,3.089,3.0913,3.0919,3.0941,3.095,3.0964,3.098,3.0982,3.0997,3.1006,3.1023,3.1029,3.1053,3.1058,3.1062,3.1063,3.1061,3.1061,3.1067,3.1065,3.1064,3.1064,3.1064,3.1064,0,3.0818,3.0846,3.0869,3.0877,3.0896,3.0907,3.0916,3.093,3.0942,3.0958,3.0965,3.0983,3.0993,3.1008,3.1015,3.1005,3.1045,3.1033,3.1049,3.1049,3.1056,3.1055,3.1098,3.1063,3.1063,3.1063,3.1063,0,3.0802,3.0817,3.0848,3.0865,3.0872,3.0886,3.0904,3.0919,3.0934,3.0938,3.095,3.0951,3.0972,3.0961,3.099,3.0976,3.0987,3.0992,3.0994,3.0995,3.0981,3.1004,3.1044,3.1049,3.0999,3.0998,3.0998,0,3.077,3.0803,3.0808,3.0836,3.0852,3.0853,3.0869,3.0882,3.0888,3.0903,3.0911,3.0927,3.092,3.0926,3.094,3.0948,3.0966,3.0946,3.0968,3.0969,3.0964,3.1002,3.1005,3.1035,3.0991,3.0992,3.0992,0,3.0745,3.0767,3.0771,3.078,3.0796,3.0809,3.0828,3.0845,3.0855,3.0868,3.0884,3.0907,3.0903,3.0912,3.0914,3.0928,3.0954,3.0921,3.0921,3.0927,3.0988,3.0991,3.0996,3.0953,3.0953,3.0954,3.0987,0,3.0721,3.0737,3.0749,3.0766,3.0777,3.0795,3.0801,3.0812,3.0813,3.0818,3.0842,3.0852,3.0868,3.0875,3.0875,3.0904,3.09,3.0894,3.0882,3.0906,3.0917,3.0922,3.0865,3.0865,3.0865,3.0865,0,0,3.0687,3.071,3.0712,3.0729,3.0739,3.0736,3.0755,3.0763,3.078,3.0786,3.078,3.0813,3.0821,3.0848,3.0856,3.0863,3.0868,3.0858,3.0895,3.0898,3.0901,3.0913,3.0917,3.0864,3.0864,3.0864,3.0864,0,3.0679,3.0686,3.0703,3.0713,3.0725,3.073,3.0734,3.0746,3.075,3.0771,3.0768,3.0783,3.0807,3.0816,3.0824,3.0856,3.0852,3.0861,3.0876,3.0892,3.0895,3.0899,3.0911,3.0915,3.0863,3.0863,3.0863,0,3.0655,3.0664,3.0672,3.0691,3.0699,3.0714,3.0704,3.072,3.0731,3.0726,3.0747,3.0753,3.0765,3.0789,3.08,3.0794,3.0837,3.0824,3.0826,3.0826,3.0842,3.0846,3.085,3.0798,3.0798,3.0798,0,0,3.0647,3.0661,3.0671,3.0689,3.0695,3.0701,3.0708,3.0709,3.0719,3.0723,3.073,3.0741,3.0755,3.0765,3.0778,3.0804,3.0807,3.0815,3.0819,3.0821,3.0823,3.0839,3.0844,3.0797,3.0797,3.0797,0,0,3.0643,3.0655,3.0653,3.0675,3.0685,3.0696,3.0707,3.0705,3.0717,3.0715,3.0716,3.0719,3.0742,3.0747,3.0734,3.0774,3.0762,3.0765,3.0769,3.0773,3.0776,3.0774,3.0723,0,0,0,0,0,3.0636,3.0654,3.0652,3.0656,3.0678,3.0697,3.07,3.0701,3.0693,3.0702,3.0708,3.0703,3.0741,3.0729,3.0734,3.0747,3.0785,3.0787,3.0789,3.0801,3.0805,3.0808,0,0,0,0,0,0,3.0637,3.0643,3.0651,3.0662,3.0667,3.0696,3.0683,3.0684,3.0692,3.0691,3.0702,3.0703,3.0704,3.0727,3.0731,3.0744,3.0721,3.0786,3.0787,3.0789,3.0802,3.0805,3.0808,0,0,0,0,0,3.0639,3.0643,3.0678,3.0662,3.0666,3.0673,3.0682,3.0683,3.0689,3.0697,3.0697,3.0689,3.0704,3.0708,3.0729,3.0742,3.0719,3.072,3.0787,3.0788,3.0789,3.0804,0,0,0,0,0,0,3.064,3.0644,3.0679,3.068,3.0655,3.0671,3.0673,3.0682,3.0694,3.0695,3.0684,3.0683,3.0705,3.0707,3.071,3.0741,3.0716,3.0718,3.0719,3.0788,3.0789,3.079,0,0,0,0,0,0,3.0642,3.0645,3.068,3.067,3.0671,3.0669,3.0672,3.0689,3.0695,3.0681,3.068,3.0683,3.0701,3.0707,3.0709,3.0737,3.0715,3.0716,3.0717,3.0718,3.0789,3.079,0,0,0,0,0,0,3.0643,3.0646,3.067,3.067,3.0671,3.0686,3.0685,3.0708,3.0687,3.068,3.0685,3.0684,3.0701,3.0703,3.0709,3.0736,3.0737,3.0715,3.0716,3.0716,3.0717,0,0,0,0,0,0,0,3.0644,3.0624,3.0671,3.067,3.067,3.0694,3.0694,3.0694,3.0686,3.0686,3.0685,3.0684,3.0707,3.0708,3.071,3.0735,0,0,3.0715,3.0715,0,0,0,0,0,0,0,0,3.0623,3.0623,3.0671,3.0671,3.0671,3.0694,3.0694,3.0694,3.0686,3.0686,3.0685,3.0685,3.0707,3.0708,3.071,0,0,0,0,0,0,0,0,0,0,0,0,0,0,0,3.0671,3.0671,0,3.0694,3.0694,3.0694,3.0686,3.0686,3.0685,3.0685,3.0707,3.0708,3.0709,0,0,0,0,0,0,0,0,0,0,0,0,0,0,0,0,0,0,0,0,0,0,0,0,0,0,0,0,0,0,0,0,0,0,0,0,0,0,0,0,0,0,0,0,0,0,0,0,0,0,0,0,0,0,0,0,0,0,0,0,0,0,0,0,0,0,0,0,0]}],[{"header":{"parameterUnit":"kt","parameterCategory":2,"dx":1,"dy":1,"la1":30.253999710083008,"la2":30.299108505249023,"lo1":-89.0895004272461,"lo2":-89.04439544677734,"nx":28,"ny":28,"refTime":"2022-10-17T21:00:00:Z","depth":0,"parameterNumber":2,"parameterNumberName":"V-component_of_WINDS"},"data":[-13.5628,-13.578,-13.5805,-13.5989,-13.6042,-13.6171,-13.6224,-13.6295,-13.6357,-13.651,-13.6602,-13.6639,-13.6706,-13.6818,-13.6916,-13.6929,-13.6968,-13.7006,-13.7014,-13.6828,-13.6803,-13.678,-13.6747,-13.7014,-13.7015,-13.7204,-13.7206,-13.7207,-13.5493,-13.5549,-13.5654,-13.5771,-13.5861,-13.5841,-13.593,-13.6005,-13.6119,-13.6195,-13.6286,-13.6421,-13.6529,-13.6583,-13.669,-13.6758,-13.6752,-13.6785,-13.6779,-13.679,-13.6592,-13.6557,-13.6788,-13.6788,-13.6788,-13.6788,-13.6788,-13.6788,-13.5256,-13.5346,-13.5432,-13.5545,-13.561,-13.5687,-13.5776,-13.582,-13.5919,-13.6036,-13.6042,-13.6169,-13.6247,-13.6383,-13.6433,-13.6531,-13.6497,-13.6538,-13.6549,-13.6559,-13.6568,-13.6294,-13.6549,-13.6548,-13.6548,-13.6547,-13.6547,0,-13.5089,-13.5104,-13.5205,-13.5314,-13.5397,-13.5482,-13.5563,-13.5618,-13.5651,-13.5731,-13.5848,-13.5918,-13.6055,-13.6165,-13.6268,-13.631,-13.6291,-13.6291,-13.632,-13.632,-13.6308,-13.6316,-13.5992,-13.6283,-13.628,-13.6279,-13.6278,-13.6277,-13.4851,-13.4952,-13.5052,-13.5119,-13.5169,-13.5277,-13.5345,-13.5366,-13.5437,-13.5537,-13.5612,-13.5723,-13.5813,-13.5992,-13.6036,-13.6136,-13.6127,-13.6236,-13.6142,-13.6139,-13.6129,-13.6123,-13.6133,-13.6253,-13.6256,-13.6259,-13.6261,0,-13.4715,-13.4753,-13.4916,-13.5002,-13.5027,-13.513,-13.5203,-13.5291,-13.5321,-13.5446,-13.5476,-13.5523,-13.5634,-13.5661,-13.5791,-13.5801,-13.5969,-13.5957,-13.5944,-13.5943,-13.6043,-13.6033,-13.6363,-13.6408,-13.6131,-13.6133,-13.6135,0,-13.4526,-13.4656,-13.4705,-13.4797,-13.4942,-13.496,-13.5102,-13.5143,-13.521,-13.5308,-13.5293,-13.5384,-13.5403,-13.5498,-13.5512,-13.5653,-13.5677,-13.5693,-13.5695,-13.5694,-13.5692,-13.5728,-13.5715,-13.5695,-13.5693,-13.5692,-13.569,0,-13.4308,-13.4485,-13.4636,-13.4681,-13.4784,-13.4854,-13.4899,-13.4973,-13.5037,-13.5125,-13.5167,-13.5266,-13.532,-13.5397,-13.5414,-13.535,-13.5587,-13.5501,-13.5603,-13.5602,-13.5652,-13.5648,-13.5936,-13.5688,-13.5688,-13.5687,-13.5686,0,-13.416,-13.4253,-13.4464,-13.455,-13.4595,-13.4692,-13.4793,-13.4883,-13.4961,-13.4978,-13.5046,-13.5037,-13.5162,-13.5075,-13.5247,-13.5158,-13.5212,-13.5238,-13.5246,-13.5257,-13.5159,-13.5317,-13.5589,-13.5619,-13.527,-13.5266,-13.5263,0,-13.3901,-13.4124,-13.4141,-13.434,-13.4446,-13.4424,-13.4531,-13.4601,-13.4632,-13.4724,-13.4756,-13.4859,-13.48,-13.4836,-13.4918,-13.4953,-13.5069,-13.4939,-13.5067,-13.5072,-13.5049,-13.53,-13.5333,-13.5527,-13.5219,-13.5224,-13.5227,0,-13.3704,-13.3829,-13.3863,-13.3916,-13.4012,-13.4099,-13.4223,-13.4331,-13.4392,-13.447,-13.4573,-13.4718,-13.468,-13.4737,-13.4739,-13.4823,-13.4991,-13.4769,-13.477,-13.4808,-13.5198,-13.5231,-13.5263,-13.4974,-13.4979,-13.4983,-13.5192,0,-13.3474,-13.3588,-13.3682,-13.3797,-13.3869,-13.3993,-13.4023,-13.4094,-13.409,-13.4119,-13.4269,-13.4329,-13.4434,-13.4476,-13.4471,-13.4655,-13.4628,-13.4584,-13.4499,-13.4664,-13.4733,-13.4762,-13.4394,-13.4392,-13.439,-13.4388,0,0,-13.3216,-13.3381,-13.3393,-13.3515,-13.3576,-13.3548,-13.3679,-13.3734,-13.3845,-13.3887,-13.3841,-13.4053,-13.4102,-13.4281,-13.4334,-13.4376,-13.4411,-13.4351,-13.4585,-13.4607,-13.4628,-13.4701,-13.4731,-13.4385,-13.4384,-13.4384,-13.4383,0,-13.3138,-13.3195,-13.3325,-13.3384,-13.3472,-13.3496,-13.3527,-13.3607,-13.363,-13.3777,-13.3749,-13.3841,-13.4008,-13.4065,-13.4116,-13.4331,-13.4302,-13.4361,-13.4469,-13.4565,-13.4589,-13.4611,-13.4688,-13.4716,-13.4378,-13.4378,-13.4379,0,-13.2949,-13.3011,-13.3076,-13.3214,-13.3269,-13.3377,-13.3298,-13.3414,-13.3493,-13.345,-13.3596,-13.3632,-13.3708,-13.3873,-13.3948,-13.3907,-13.4202,-13.4112,-13.4125,-13.4133,-13.4227,-13.4256,-13.4282,-13.3937,-13.3935,-13.3934,0,0,-13.2877,-13.2983,-13.3052,-13.3199,-13.3236,-13.3273,-13.3331,-13.3333,-13.3405,-13.3434,-13.3479,-13.3548,-13.3645,-13.3708,-13.38,-13.3977,-13.3993,-13.4057,-13.4078,-13.4095,-13.4112,-13.421,-13.4239,-13.3927,-13.3927,-13.3927,0,0,-13.2841,-13.2928,-13.2912,-13.3086,-13.3158,-13.3232,-13.332,-13.3301,-13.3387,-13.3375,-13.3379,-13.3397,-13.3551,-13.3586,-13.3502,-13.377,-13.3686,-13.3706,-13.3741,-13.3768,-13.3788,-13.3776,-13.3424,0,0,0,0,0,-13.2775,-13.2918,-13.2903,-13.2936,-13.3106,-13.3242,-13.3263,-13.3272,-13.3214,-13.3284,-13.3318,-13.3283,-13.3542,-13.3467,-13.3498,-13.3592,-13.3848,-13.3862,-13.3876,-13.3962,-13.399,-13.4013,0,0,0,0,0,0,-13.2788,-13.2829,-13.2899,-13.2979,-13.3018,-13.3237,-13.314,-13.3146,-13.3207,-13.3198,-13.3277,-13.3285,-13.3292,-13.3452,-13.348,-13.3568,-13.3415,-13.3854,-13.3866,-13.3876,-13.3972,-13.3994,-13.4014,0,0,0,0,0,-13.2799,-13.2831,-13.3103,-13.2977,-13.3011,-13.3057,-13.3135,-13.3139,-13.3186,-13.3238,-13.3245,-13.3187,-13.3295,-13.3319,-13.3468,-13.3555,-13.3395,-13.3406,-13.3862,-13.3871,-13.3879,-13.3983,0,0,0,0,0,0,-13.2806,-13.2835,-13.311,-13.312,-13.2924,-13.3045,-13.3064,-13.3133,-13.3221,-13.323,-13.3147,-13.314,-13.3298,-13.3316,-13.3335,-13.3551,-13.3379,-13.339,-13.3397,-13.3869,-13.3876,-13.3883,0,0,0,0,0,0,-13.2818,-13.2844,-13.3115,-13.3047,-13.305,-13.3034,-13.3051,-13.3178,-13.3223,-13.3125,-13.3122,-13.3143,-13.3269,-13.3315,-13.3329,-13.3527,-13.3367,-13.3378,-13.3385,-13.3389,-13.3875,-13.3881,0,0,0,0,0,0,-13.2829,-13.2852,-13.3045,-13.3047,-13.3049,-13.3165,-13.3145,-13.3318,-13.3169,-13.3122,-13.3155,-13.3149,-13.3269,-13.3283,-13.3326,-13.3517,-13.3524,-13.3368,-13.3375,-13.338,-13.3383,0,0,0,0,0,0,0,-13.2838,-13.2683,-13.3049,-13.3046,-13.3048,-13.3216,-13.3219,-13.3222,-13.3167,-13.3162,-13.3156,-13.3151,-13.331,-13.3321,-13.3332,-13.351,0,0,-13.3367,-13.3372,0,0,0,0,0,0,0,0,-13.2674,-13.2681,-13.3049,-13.3052,-13.3054,-13.3217,-13.3219,-13.3221,-13.3166,-13.3162,-13.3158,-13.3154,-13.3313,-13.3322,-13.3331,0,0,0,0,0,0,0,0,0,0,0,0,0,0,0,-13.305,-13.3051,0,-13.3217,-13.3219,-13.3221,-13.3166,-13.3162,-13.3159,-13.3155,-13.3315,-13.3322,-13.333,0,0,0,0,0,0,0,0,0,0,0,0,0,0,0,0,0,0,0,0,0,0,0,0,0,0,0,0,0,0,0,0,0,0,0,0,0,0,0,0,0,0,0,0,0,0,0,0,0,0,0,0,0,0,0,0,0,0,0,0,0,0,0,0,0,0,0,0,0]}]]]